Location: Bessat
(45.8735°N, 1.9924°E)
Time: 20:50:09
(UTC+00:00)

Meteor 2-4 Rocket - Pass Details

Date: 11 May 2021
Orbit: 799 x 909 km, 81.2° (Epoch: 20 June)

Event Time Altitude Azimuth Distance (km) Brightness Sun altitude
Exits shadow 22:47:04 44° 108° (ESE) 1,181 4.2 -24.5°
Maximum altitude 22:47:33 46° 93° (E) 1,162 4.2 -24.5°
Drops below altitude 10° 22:52:54 10° 22° (NNE) 2,487 6.8 -24.8°
Sets 22:55:22 0° 17° (NNE) 3,410 7.8 -24.9°
